DW8482 Tortoreto Alto IT current weather conditions

sailwx.info

Wind from 256 at 3 knots gusting 10

Air temperature 3.9° C
Dewpoint 0.2° C

Last reported at 2015-Jan-28 17:42 UTC.
Time now 2015-Jan-28 18:11 UTC

Location: N 42°48' E 013°54'.
View on Google Maps.

See reports from other nearby stations

  
Tides and Currents Weather Stations Pressure Air Temp Water Temp Dewpoint Dewpoint Depression Visibility Wind Speed Wind Dir Waves Ship Positions
date/time (UTC)wind fromknots sea level pressurealtimeterstation pressurevisibilityair tempwater tempwave heightnotes
2015-Jan-28 17:42 256 3 gusting 10 3.9
2015-Jan-28 17:37 023 0 gusting 6 3.9
2015-Jan-28 17:28 261 5 gusting 9 3.9
2015-Jan-28 17:22 252 4 gusting 9 3.9
2015-Jan-28 17:17 257 3.9
2015-Jan-28 17:12 248 1 gusting 10 3.9
2015-Jan-28 17:08 276 3 gusting 10 3.9
2015-Jan-28 16:57 244 4 gusting 8 3.9
2015-Jan-28 16:52 269 3.9
2015-Jan-28 16:47 277 3.9
2015-Jan-28 16:42 261 1 gusting 6 3.9
2015-Jan-28 16:37 269 2 gusting 6 3.9
2015-Jan-28 16:32 244 3.9
2015-Jan-28 16:22 259 4.4
2015-Jan-28 16:12 241 4.4
2015-Jan-28 16:07 224 4.4
2015-Jan-28 16:02 259 0 gusting 12 4.4
2015-Jan-28 15:57 208 4.4
2015-Jan-28 15:52 250 4.4
2015-Jan-28 15:48 291 2 gusting 13 4.4
2015-Jan-28 15:43 296 8 gusting 13 5.0
2015-Jan-28 15:37 337 1 gusting 12 5.0
2015-Jan-28 15:32 307 5 gusting 13 4.4
2015-Jan-28 15:27 311 6 gusting 14 5.0
2015-Jan-28 15:23 259 5.0
2015-Jan-28 15:17 278 8 gusting 16 5.0
2015-Jan-28 15:12 298 6 gusting 17 5.0
2015-Jan-28 15:07 290 12 gusting 14 4.4
2015-Jan-28 15:02 306 3 gusting 14 4.4
2015-Jan-28 14:57 243 5 gusting 13 4.4
2015-Jan-28 14:52 217 5 gusting 15 4.4
2015-Jan-28 14:47 290 7 gusting 13 4.4
2015-Jan-28 14:37 272 2 gusting 13 4.4
2015-Jan-28 14:32 281 8 gusting 11 4.4
2015-Jan-28 14:27 302 6 gusting 11 4.4
2015-Jan-28 14:22 278 3 gusting 14 4.4
2015-Jan-28 14:17 273 0 gusting 14 4.4
2015-Jan-28 14:12 282 13 gusting 13 4.4
2015-Jan-28 14:07 314 4.4
2015-Jan-28 14:02 275 4.4
2015-Jan-28 13:57 252 4.4
2015-Jan-28 13:52 290 4.4
2015-Jan-28 13:47 209 4.4
2015-Jan-28 13:42 207 5 gusting 9 4.4
2015-Jan-28 13:37 298 4.4
2015-Jan-28 13:32 252 0 gusting 8 4.4
2015-Jan-28 13:27 244 2 gusting 13 4.4
2015-Jan-28 13:22 285 4 gusting 13 4.4
2015-Jan-28 13:17 324 4.4
2015-Jan-28 13:12 292 1 gusting 8 4.4
2015-Jan-28 13:07 303 5 gusting 12 4.4
2015-Jan-28 13:02 252 0 gusting 9 3.9
2015-Jan-28 12:57 251 4 gusting 7 3.9
2015-Jan-28 12:52 266 6 gusting 10 3.9
2015-Jan-28 12:47 247 2 gusting 10 3.9
2015-Jan-28 12:42 269 5 gusting 13 3.9
2015-Jan-28 12:37 285 3.9
2015-Jan-28 12:32 256 6 gusting 6 3.9
2015-Jan-28 12:27 267 9 gusting 10 3.3
2015-Jan-28 12:22 215 2 gusting 8 3.3
2015-Jan-28 12:17 240 3.3
2015-Jan-28 12:12 216 2 gusting 5 3.3
2015-Jan-28 12:07 229 3.3
2015-Jan-28 12:02 215 3.3
2015-Jan-28 11:57 254 0 gusting 3 3.3
2015-Jan-28 11:52 236 3.3
2015-Jan-28 11:47 243 2.8
2015-Jan-28 11:42 269 1 gusting 6 2.8
2015-Jan-28 11:38 242 1 gusting 6 2.8
2015-Jan-28 11:32 317 6 gusting 7 2.8
2015-Jan-28 11:27 237 2.8
2015-Jan-28 11:22 269 2.8
2015-Jan-28 11:17 249 3 gusting 10 3.3
2015-Jan-28 11:12 297 11 gusting 12 2.8
2015-Jan-28 11:07 259 3 gusting 10 2.8
2015-Jan-28 11:02 304 2.8
2015-Jan-28 10:57 246 1 gusting 11 2.8
2015-Jan-28 10:52 299 2.8
2015-Jan-28 10:47 165 2.8
2015-Jan-28 10:42 266 1 gusting 10 2.8
2015-Jan-28 10:37 229 1 gusting 15 2.8
2015-Jan-28 10:32 225 2 gusting 14 2.8
2015-Jan-28 10:27 313 8 gusting 13 2.8
2015-Jan-28 10:22 254 1 gusting 16 2.8
2015-Jan-28 10:17 306 7 gusting 15 2.8
2015-Jan-28 10:12 279 3 gusting 17 2.8
2015-Jan-28 10:07 290 2 gusting 18 2.8
2015-Jan-28 10:02 279 11 gusting 20 2.8
2015-Jan-28 09:57 279 5 gusting 14 2.8
2015-Jan-28 09:52 263 5 gusting 21 2.8
2015-Jan-28 09:47 224 8 gusting 17 2.8
2015-Jan-28 09:42 286 10 gusting 19 2.2
2015-Jan-28 09:37 297 6 gusting 13 2.2
2015-Jan-28 09:32 310 5 gusting 15 2.2
2015-Jan-28 09:27 282 3 gusting 14 2.2
2015-Jan-28 09:17 255 2 gusting 11 1.7
2015-Jan-28 09:12 284 5 gusting 10 1.7
2015-Jan-28 09:07 225 5 gusting 13 1.7
2015-Jan-28 09:02 278 2 gusting 13 1.7
2015-Jan-28 08:57 277 0 gusting 13 1.7
2015-Jan-28 08:52 275 10 gusting 12 1.7
2015-Jan-28 08:47 279 3 gusting 15 1.7
2015-Jan-28 08:42 240 1 gusting 10 1.1
2015-Jan-28 08:37 286 5 gusting 12 1.7
2015-Jan-28 08:32 259 10 gusting 13 1.7
2015-Jan-28 08:27 302 10 gusting 16 1.7
2015-Jan-28 08:22 286 13 gusting 13 1.7
2015-Jan-28 08:17 260 3 gusting 23 1.7
2015-Jan-28 08:12 1.7
2015-Jan-28 08:07 282 14 gusting 21 1.7
2015-Jan-28 08:02 228 5 gusting 19 1.7
2015-Jan-28 07:57 295 6 gusting 21 1.7
2015-Jan-28 07:52 289 2 gusting 18 1.7
2015-Jan-28 07:47 301 9 gusting 18 1.7
2015-Jan-28 07:42 300 4 gusting 15 1.7
2015-Jan-28 07:37 298 6 gusting 12 1.7
2015-Jan-28 07:32 294 9 gusting 15 1.7
2015-Jan-28 07:27 250 8 gusting 16 1.7
2015-Jan-28 07:22 251 0 gusting 20 1.7
2015-Jan-28 07:17 286 9 gusting 25 1.7
2015-Jan-28 07:12 227 2 gusting 25 1.7
2015-Jan-28 07:07 323 8 gusting 13 1.7
2015-Jan-28 07:02 274 7 gusting 18 1.1
2015-Jan-28 06:57 241 7 gusting 14 1.1
2015-Jan-28 06:52 266 6 gusting 13 1.1
2015-Jan-28 06:47 236 1 gusting 17 1.1
2015-Jan-28 05:42 190 8 gusting 8 1.1
2015-Jan-28 05:37 160 0 gusting 11 1.1
2015-Jan-28 05:32 238 1.1
2015-Jan-28 05:27 188 2 gusting 6 1.1
2015-Jan-28 05:22 248 4 gusting 15 1.1
2015-Jan-28 05:17 231 3 gusting 11 1.1
2015-Jan-28 05:12 236 2 gusting 7 1.1
2015-Jan-28 05:07 255 5 gusting 6 1.1
2015-Jan-28 05:02 252 1.1
2015-Jan-28 04:57 243 4 gusting 11 1.1
2015-Jan-28 04:52 246 0 gusting 10 1.1
2015-Jan-28 04:47 258 5 gusting 9 1.1
2015-Jan-28 04:42 301 1.1
2015-Jan-28 04:37 243 3 gusting 11 1.1
2015-Jan-28 04:32 281 1 gusting 17 1.1
2015-Jan-28 04:27 284 2 gusting 13 1.1
2015-Jan-28 04:22 311 13 gusting 15 1.1
2015-Jan-28 04:17 292 6 gusting 15 1.1
2015-Jan-28 04:12 280 6 gusting 14 1.1
2015-Jan-28 04:07 265 8 gusting 14 1.1
2015-Jan-28 04:02 323 6 gusting 15 1.1
2015-Jan-28 03:57 279 4 gusting 19 1.1
2015-Jan-28 03:52 290 8 gusting 14 1.7
2015-Jan-28 03:47 319 6 gusting 19 1.7
2015-Jan-28 03:42 300 6 gusting 20 1.7
2015-Jan-28 03:37 293 13 gusting 19 1.7
2015-Jan-28 03:32 283 12 gusting 15 1.7
2015-Jan-28 03:27 323 5 gusting 16 1.7
2015-Jan-28 03:22 279 14 gusting 14 1.7
2015-Jan-28 03:17 232 6 gusting 11 2.2
2015-Jan-28 03:12 238 1 gusting 11 2.2
2015-Jan-28 03:07 250 9 gusting 11 2.2
2015-Jan-28 03:02 242 5 gusting 12 2.2
2015-Jan-28 02:57 284 1 gusting 8 2.2
2015-Jan-28 02:52 271 3 gusting 6 2.2
2015-Jan-28 02:47 028 2.2
2015-Jan-28 02:42 263 2.2
2015-Jan-28 02:37 289 4 gusting 11 2.2
2015-Jan-28 02:32 293 7 gusting 15 2.2
2015-Jan-28 02:27 2.2
2015-Jan-28 02:22 276 6 gusting 15 2.8
2015-Jan-28 02:17 275 9 gusting 15 2.8
2015-Jan-28 02:12 295 11 gusting 16 2.8
2015-Jan-28 02:07 291 16 gusting 15 2.8
2015-Jan-28 02:02 325 7 gusting 13 2.8
2015-Jan-28 01:57 290 8 gusting 18 2.8
2015-Jan-28 01:52 287 6 gusting 13 2.8
2015-Jan-28 01:47 254 2 gusting 8 3.3
2015-Jan-28 01:42 355 6 gusting 15 3.3
2015-Jan-28 01:37 284 13 gusting 19 3.3
2015-Jan-28 01:32 298 7 gusting 16 3.3
2015-Jan-28 01:27 284 12 gusting 21 3.9
2015-Jan-28 01:22 298 13 gusting 16 3.9
2015-Jan-28 01:17 274 6 gusting 12 3.9
2015-Jan-28 01:12 272 0 gusting 15 3.9
2015-Jan-28 01:07 280 15 gusting 19 3.9
2015-Jan-28 01:02 249 11 gusting 23 3.9
2015-Jan-28 00:57 288 16 gusting 19 3.9
2015-Jan-28 00:52 311 7 gusting 18 3.9
2015-Jan-28 00:47 319 12 gusting 16 3.9
2015-Jan-28 00:42 255 0 gusting 16 3.9
2015-Jan-28 00:37 308 7 gusting 21 4.4
2015-Jan-28 00:32 300 19 gusting 19 4.4
2015-Jan-28 00:27 273 9 gusting 21 4.4
2015-Jan-28 00:22 315 15 gusting 19 3.9
2015-Jan-28 00:17 285 6 gusting 15 3.9
2015-Jan-28 00:12 183 2 gusting 15 3.9
2015-Jan-28 00:07 228 13 gusting 17 3.9
2015-Jan-28 00:02 279 6 gusting 15 3.9
2015-Jan-27 23:57 273 6 gusting 14 3.9
2015-Jan-27 23:52 298 5 gusting 19 3.9
2015-Jan-27 23:47 305 12 gusting 18 3.9
2015-Jan-27 23:42 276 14 gusting 19 3.9
2015-Jan-27 23:37 319 5 gusting 15 3.9
2015-Jan-27 23:32 259 5 gusting 16 4.4
2015-Jan-27 23:27 288 10 gusting 14 4.4
2015-Jan-27 23:22 297 4 gusting 11 4.4
2015-Jan-27 23:17 277 5 gusting 14 4.4
2015-Jan-27 23:12 257 4 gusting 13 4.4
2015-Jan-27 23:07 271 6 gusting 13 4.4
2015-Jan-27 23:02 336 4.4
2015-Jan-27 22:57 278 8 gusting 13 4.4
2015-Jan-27 22:52 332 1 gusting 13 4.4
2015-Jan-27 22:47 264 6 gusting 13 4.4
2015-Jan-27 22:42 281 5 gusting 13 4.4
2015-Jan-27 22:37 284 1 gusting 9 4.4
2015-Jan-27 22:32 263 3 gusting 13 4.4
2015-Jan-27 22:27 248 2 gusting 9 4.4
2015-Jan-27 22:22 298 9 gusting 13 4.4
2015-Jan-27 22:17 241 4.4
2015-Jan-27 22:12 283 6 gusting 15 4.4
2015-Jan-27 22:07 260 3 gusting 15 4.4
2015-Jan-27 22:02 296 3 gusting 16 4.4
2015-Jan-27 21:57 271 6 gusting 16 4.4
2015-Jan-27 21:52 293 12 gusting 16 4.4
2015-Jan-27 21:47 310 10 gusting 17 5.0
2015-Jan-27 21:42 325 6 gusting 14 5.0
2015-Jan-27 21:37 269 2 gusting 16 5.0
2015-Jan-27 21:32 298 10 gusting 19 5.0
2015-Jan-27 21:27 271 13 gusting 19 5.0
2015-Jan-27 21:22 274 13 gusting 19 5.0
2015-Jan-27 21:17 323 11 gusting 15 5.0
2015-Jan-27 21:12 243 4 gusting 17 5.0
2015-Jan-27 21:07 333 2 gusting 17 5.0
2015-Jan-27 21:02 202 1 gusting 14 5.0
2015-Jan-27 20:57 284 8 gusting 15 5.0
2015-Jan-27 20:52 238 3 gusting 11 5.0
2015-Jan-27 20:47 293 0 gusting 15 5.0
2015-Jan-27 20:42 268 7 gusting 13 5.0
2015-Jan-27 20:38 257 6 gusting 15 5.0
2015-Jan-27 20:32 288 1 gusting 9 5.0
2015-Jan-27 20:22 259 2 gusting 10 4.4
2015-Jan-27 20:17 252 5 gusting 13 4.4
2015-Jan-27 20:12 266 3 gusting 13 4.4
2015-Jan-27 20:07 227 3 gusting 13 4.4
2015-Jan-27 20:03 238 11 gusting 14 4.4
2015-Jan-27 19:57 271 6 gusting 14 3.9
2015-Jan-27 19:52 257 6 gusting 14 3.9
2015-Jan-27 19:47 201 3.9
2015-Jan-27 19:42 236 4 gusting 9 3.9
2015-Jan-27 19:37 260 5 gusting 14 3.9
2015-Jan-27 19:32 265 1 gusting 13 3.9
2015-Jan-27 19:27 250 12 gusting 13 3.9
2015-Jan-27 19:22 225 2 gusting 10 3.9
2015-Jan-27 19:17 254 6 gusting 17 3.9
2015-Jan-27 19:12 223 1 gusting 13 3.9
2015-Jan-27 19:07 292 12 gusting 14 3.9
2015-Jan-27 19:02 230 2 gusting 16 3.9
2015-Jan-27 18:57 302 6 gusting 17 3.9
2015-Jan-27 18:52 254 6 gusting 13 3.9
2015-Jan-27 18:48 263 3 gusting 10 3.9
2015-Jan-27 18:42 320 7 gusting 13 3.9
2015-Jan-27 18:37 227 2 gusting 9 3.9
2015-Jan-27 18:32 271 3 gusting 17 4.4
2015-Jan-27 18:27 183 0 gusting 15 4.4
2015-Jan-27 18:22 287 12 gusting 13 4.4
2015-Jan-27 18:17 246 6 gusting 16 4.4
2015-Jan-27 18:12 272 3 gusting 12 4.4
2015-Jan-27 18:07 329 4 gusting 13 4.4
2015-Jan-27 18:02 277 7 gusting 19 4.4
2015-Jan-27 17:57 306 10 gusting 18 5.0
2015-Jan-27 17:52 286 8 gusting 17 5.0
2015-Jan-27 17:47 309 10 gusting 18 5.0
2015-Jan-27 17:42 313 6 gusting 18 5.0
2015-Jan-27 17:37 241 6 gusting 17 5.0
2015-Jan-27 17:32 319 6 gusting 13 5.0
2015-Jan-27 17:27 263 5 gusting 12 5.0
2015-Jan-27 17:22 319 12 gusting 14 5.6
2015-Jan-27 17:17 323 7 gusting 17 5.6
2015-Jan-27 17:12 288 10 gusting 17 5.6
2015-Jan-27 17:07 313 6 gusting 13 5.6
2015-Jan-27 17:02 294 3 gusting 13 5.6
2015-Jan-27 16:57 286 13 gusting 13 6.1
2015-Jan-27 16:52 288 6 gusting 13 6.1
2015-Jan-27 16:47 288 3 gusting 13 6.1
2015-Jan-27 16:42 267 7 gusting 13 6.1
2015-Jan-27 16:37 290 6 gusting 14 6.1
2015-Jan-27 16:32 329 6 gusting 13 6.1
2015-Jan-27 16:27 325 6 gusting 5 6.1
2015-Jan-27 16:22 311 2 gusting 8 6.1
2015-Jan-27 16:17 319 6.1
2015-Jan-27 16:12 288 6 gusting 10 6.1
2015-Jan-27 16:07 313 1 gusting 12 6.1
2015-Jan-27 16:02 257 4 gusting 12 6.1
2015-Jan-27 15:57 269 4 gusting 10 6.7
2015-Jan-27 15:52 252 1 gusting 13 6.7
2015-Jan-27 15:47 285 9 gusting 14 6.7
2015-Jan-27 15:42 284 10 gusting 14 6.7
2015-Jan-27 15:37 302 9 gusting 15 6.7
2015-Jan-27 15:32 292 8 gusting 13 6.7
2015-Jan-27 15:27 271 6 gusting 12 6.7
2015-Jan-27 15:22 319 6 gusting 11 6.7
2015-Jan-27 15:17 301 5 gusting 11 6.7
2015-Jan-27 15:12 269 3 gusting 13 6.7
2015-Jan-27 15:07 305 5 gusting 13 7.2
2015-Jan-27 15:02 274 5 gusting 11 7.2
2015-Jan-27 14:57 284 4 gusting 12 7.2
2015-Jan-27 14:52 321 0 gusting 12 7.2
2015-Jan-27 14:47 317 5 gusting 13 7.2
2015-Jan-27 14:42 315 7 gusting 12 7.2
2015-Jan-27 14:37 312 6 gusting 13 7.2
2015-Jan-27 14:32 291 7.2
2015-Jan-27 14:27 300 6.7
2015-Jan-27 14:22 321 7 gusting 9 7.2
2015-Jan-27 14:17 265 6 gusting 11 6.7
2015-Jan-27 14:12 347 4 gusting 11 7.2
2015-Jan-27 14:07 323 1 gusting 12 7.2
2015-Jan-27 14:02 284 4 gusting 6 7.2
2015-Jan-27 13:57 317 5 gusting 11 7.2
2015-Jan-27 13:52 262 3 gusting 14 7.2
2015-Jan-27 13:47 313 3 gusting 13 7.2
2015-Jan-27 13:42 295 10 gusting 13 6.7
2015-Jan-27 13:37 319 4 gusting 11 6.7
2015-Jan-27 13:32 297 6.7
2015-Jan-27 13:27 252 6 gusting 14 7.2
2015-Jan-27 13:22 299 6 gusting 11 7.2
2015-Jan-27 13:17 315 2 gusting 12 7.2
2015-Jan-27 13:12 307 5 gusting 12 7.8
2015-Jan-27 13:07 302 3 gusting 4 7.8
2015-Jan-27 13:02 309 2 gusting 9 7.2
2015-Jan-27 12:57 298 4 gusting 6 7.2
2015-Jan-27 12:52 7.2
2015-Jan-27 12:47 7.2
2015-Jan-27 12:42 296 6 gusting 8 7.8
2015-Jan-27 12:37 281 5 gusting 8 7.8
2015-Jan-27 12:32 329 0 gusting 13 7.8
2015-Jan-27 12:27 327 2 gusting 13 7.2
2015-Jan-27 12:22 283 6 gusting 13 7.2
2015-Jan-27 12:17 302 7 gusting 14 7.2
2015-Jan-27 12:12 063 7.2
2015-Jan-27 12:07 054 6 gusting 13 7.8
2015-Jan-27 12:02 325 4 gusting 12 7.8
2015-Jan-27 11:57 042 8 gusting 10 7.2
2015-Jan-27 11:52 331 1 gusting 16 7.8
2015-Jan-27 11:47 311 11 gusting 16 7.2
2015-Jan-27 11:42 304 7 gusting 13 6.7
2015-Jan-27 11:37 299 4 gusting 14 7.2
2015-Jan-27 11:32 257 11 gusting 15 7.2
2015-Jan-27 11:27 279 10 gusting 11 7.2
2015-Jan-27 11:22 269 6 gusting 9 7.2
2015-Jan-27 11:17 281 4 gusting 12 7.2
2015-Jan-27 11:12 284 7 gusting 13 6.7
2015-Jan-27 11:07 313 5 gusting 13 6.7
2015-Jan-27 11:02 290 10 gusting 13 6.7
2015-Jan-27 10:57 279 7 gusting 12 6.7
2015-Jan-27 10:52 316 3 gusting 13 7.2
2015-Jan-27 10:47 278 0 gusting 11 6.7
2015-Jan-27 10:42 318 6 gusting 10 6.7
2015-Jan-27 10:37 333 7 gusting 11 6.7
2015-Jan-27 10:32 292 11 gusting 11 6.7
2015-Jan-27 10:27 280 3 gusting 13 6.7
2015-Jan-27 10:22 265 3 gusting 13 6.7
2015-Jan-27 10:17 268 7 gusting 12 6.7
2015-Jan-27 10:12 277 8 gusting 13 6.1
2015-Jan-27 10:07 311 11 gusting 13 6.1
2015-Jan-27 10:02 308 8 gusting 14 6.1
2015-Jan-27 09:57 346 6 gusting 14 6.1
2015-Jan-27 09:52 261 6 gusting 12 6.1
2015-Jan-27 09:47 311 9 gusting 12 6.1
2015-Jan-27 09:42 288 6 gusting 12 6.1
2015-Jan-27 09:37 286 6 gusting 11 6.1
2015-Jan-27 09:32 210 3 gusting 6 6.1
2015-Jan-27 09:27 277 4 gusting 9 5.6
2015-Jan-27 09:22 287 7 gusting 7 5.6
2015-Jan-27 09:17 323 3 gusting 13 5.6
2015-Jan-27 09:12 296 1 gusting 15 5.6
2015-Jan-27 09:07 303 10 gusting 13 5.6
2015-Jan-27 09:02 297 2 gusting 13 5.6
2015-Jan-27 08:57 287 0 gusting 13 5.6
2015-Jan-27 08:52 297 6 gusting 15 5.0
2015-Jan-27 08:47 276 4 gusting 14 5.0
2015-Jan-27 08:42 244 1 gusting 15 5.0
2015-Jan-27 08:37 313 2 gusting 13 5.0
2015-Jan-27 08:32 213 2 gusting 14 5.0
2015-Jan-27 08:27 277 6 gusting 14 5.0
2015-Jan-27 08:22 325 5 gusting 14 5.0
2015-Jan-27 08:17 307 6 gusting 13 5.0
2015-Jan-27 08:12 299 6 gusting 13 5.0
2015-Jan-27 08:07 4.4
2015-Jan-27 08:02 277 4 gusting 13 4.4
2015-Jan-27 07:57 286 6 gusting 14 4.4
2015-Jan-27 07:52 274 10 gusting 14 4.4
2015-Jan-27 07:47 272 1 gusting 13 4.4
2015-Jan-27 07:42 275 4.4
2015-Jan-27 07:37 261 7 gusting 13 4.4
2015-Jan-27 07:32 292 10 gusting 13 4.4
2015-Jan-27 07:27 276 1 gusting 11 3.9
2015-Jan-27 07:22 279 6 gusting 11 3.9
2015-Jan-27 07:17 285 9 gusting 9 3.9
2015-Jan-27 07:12 255 7 gusting 12 3.9
2015-Jan-27 07:07 217 0 gusting 7 3.9
2015-Jan-27 07:02 285 0 gusting 8 3.9
2015-Jan-27 06:57 280 4 gusting 4 3.9
2015-Jan-27 06:52 264 0 gusting 7 3.9
2015-Jan-27 06:47 346 3.9
2015-Jan-27 05:47 292 3 gusting 6 3.3
2015-Jan-27 05:42 281 1 gusting 6 3.3
2015-Jan-27 05:37 275 8 gusting 8 3.3
2015-Jan-27 05:32 238 2 gusting 8 3.3
2015-Jan-27 05:27 262 4 gusting 6 3.3
2015-Jan-27 05:22 218 0 gusting 6 3.3
2015-Jan-27 05:17 244 3.3
2015-Jan-27 05:12 251 4 gusting 7 3.3
2015-Jan-27 05:07 232 0 gusting 4 3.3
2015-Jan-27 05:02 240 0 gusting 4 3.3
2015-Jan-27 04:57 265 1 gusting 6 3.3
2015-Jan-27 04:52 256 4 gusting 7 3.3
2015-Jan-27 04:47 209 2 gusting 6 3.3
2015-Jan-27 04:42 264 2 gusting 6 3.3
2015-Jan-27 04:37 229 3.3
2015-Jan-27 04:32 221 0 gusting 6 3.3
2015-Jan-27 04:27 286 1 gusting 6 3.3
2015-Jan-27 04:22 263 3.3
2015-Jan-27 04:17 269 2 gusting 8 3.3
2015-Jan-27 04:12 283 3.3
2015-Jan-27 04:07 281 3 gusting 9 3.3
2015-Jan-27 04:02 281 3.3
2015-Jan-27 03:57 242 5 gusting 7 3.3
2015-Jan-27 03:52 306 3.3
2015-Jan-27 03:47 255 5 gusting 8 3.3
2015-Jan-27 03:42 267 0 gusting 5 3.3
2015-Jan-27 03:37 271 3 gusting 10 3.3
2015-Jan-27 03:32 282 5 gusting 12 3.3
2015-Jan-27 03:27 229 3.3
2015-Jan-27 03:22 248 1 gusting 9 3.3
2015-Jan-27 03:17 241 3.3
2015-Jan-27 03:12 262 4 gusting 10 3.3
2015-Jan-27 03:07 262 1 gusting 6 3.3
2015-Jan-27 03:02 235 3 gusting 6 3.3
2015-Jan-27 02:57 301 4 gusting 9 3.3
2015-Jan-27 02:52 274 2 gusting 10 3.3
2015-Jan-27 02:47 283 3 gusting 9 3.3
2015-Jan-27 02:42 281 0 gusting 6 3.3
2015-Jan-27 02:37 238 3 gusting 7 3.3
2015-Jan-27 02:32 263 5 gusting 7 3.3
2015-Jan-27 02:27 255 2 gusting 4 3.3
2015-Jan-27 02:22 244 2 gusting 8 3.3
2015-Jan-27 02:17 246 3 gusting 6 3.3
2015-Jan-27 02:12 237 3 gusting 13 3.3
2015-Jan-27 02:07 280 4 gusting 8 3.3
2015-Jan-27 02:02 284 1 gusting 10 3.3
2015-Jan-27 01:57 237 4 gusting 7 3.3
2015-Jan-27 01:52 301 1 gusting 7 3.9
2015-Jan-27 01:47 252 5 gusting 9 3.9
2015-Jan-27 01:42 258 3 gusting 8 3.9
2015-Jan-27 01:37 252 6 gusting 8 3.9
2015-Jan-27 01:32 265 7 gusting 11 3.9
2015-Jan-27 01:27 254 7 gusting 7 3.9
2015-Jan-27 01:22 213 2 gusting 6 3.9
2015-Jan-27 01:12 230 3.9
2015-Jan-27 01:07 210 3.9
2015-Jan-27 01:02 213 1 gusting 5 3.9
2015-Jan-27 00:57 213 4.4
2015-Jan-27 00:52 213 4.4
2015-Jan-27 00:47 225 4.4
2015-Jan-27 00:42 240 4.4
2015-Jan-27 00:37 240 4.4
2015-Jan-27 00:32 240 0 gusting 4 4.4
2015-Jan-27 00:27 219 4.4
2015-Jan-27 00:22 217 4 gusting 6 4.4
2015-Jan-27 00:17 246 2 gusting 5 4.4
2015-Jan-27 00:12 236 2 gusting 8 4.4
2015-Jan-27 00:07 279 4.4
2015-Jan-27 00:02 279 0 gusting 7 4.4
2015-Jan-26 23:57 283 2 gusting 5 4.4
2015-Jan-26 23:52 237 4.4
2015-Jan-26 23:47 262 4.4
2015-Jan-26 23:42 265 0 gusting 6 4.4
2015-Jan-26 23:37 274 4.4
2015-Jan-26 23:32 238 0 gusting 10 4.4
2015-Jan-26 23:27 292 4.4
2015-Jan-26 23:22 327 0 gusting 6 4.4
2015-Jan-26 23:17 213 4.4
2015-Jan-26 23:12 296 2 gusting 8 4.4
2015-Jan-26 23:07 355 2 gusting 6 4.4
2015-Jan-26 23:02 284 3 gusting 6 4.4
2015-Jan-26 22:57 251 5 gusting 8 4.4
2015-Jan-26 22:52 259 5 gusting 10 4.4
2015-Jan-26 22:47 307 1 gusting 7 4.4
2015-Jan-26 22:42 248 4.4
2015-Jan-26 22:37 257 3 gusting 6 4.4
2015-Jan-26 22:32 279 1 gusting 5 4.4
2015-Jan-26 22:27 330 4.4
2015-Jan-26 22:22 299 4.4
2015-Jan-26 22:17 233 4.4
2015-Jan-26 22:12 294 4.4
2015-Jan-26 22:07 238 2 gusting 9 4.4
2015-Jan-26 22:02 300 2 gusting 6 4.4
2015-Jan-26 21:57 273 3 gusting 7 4.4
2015-Jan-26 21:52 313 4.4
2015-Jan-26 21:47 219 0 gusting 10 4.4
2015-Jan-26 21:42 275 5 gusting 14 4.4
2015-Jan-26 21:37 252 7 gusting 7 4.4
2015-Jan-26 21:32 283 3 gusting 12 4.4
2015-Jan-26 21:27 241 4.4
2015-Jan-26 21:22 315 6 gusting 11 4.4
2015-Jan-26 21:17 280 7 gusting 12 4.4
2015-Jan-26 21:12 305 1 gusting 10 4.4
2015-Jan-26 21:07 302 2 gusting 6 4.4
2015-Jan-26 21:02 277 0 gusting 6 4.4
2015-Jan-26 20:57 223 4.4
2015-Jan-26 20:52 279 2 gusting 6 4.4
2015-Jan-26 20:47 302 4.4
2015-Jan-26 20:42 248 4.4
2015-Jan-26 20:37 242 2 gusting 2 4.4
2015-Jan-26 20:32 254 4.4
2015-Jan-26 20:27 250 4.4
2015-Jan-26 20:22 248 2 gusting 3 4.4
2015-Jan-26 20:17 216 2 gusting 5 4.4
2015-Jan-26 20:12 242 0 gusting 5 4.4
2015-Jan-26 20:07 200 4.4
2015-Jan-26 20:02 219 4.4
2015-Jan-26 19:57 284 4.4
2015-Jan-26 19:52 283 3 gusting 7 4.4
2015-Jan-26 19:47 242 4.4
2015-Jan-26 19:42 254 4.4
2015-Jan-26 19:37 274 3 gusting 7 4.4
2015-Jan-26 19:32 232 4.4
2015-Jan-26 19:27 281 3 gusting 12 4.4
2015-Jan-26 19:22 239 4.4
2015-Jan-26 19:17 329 0 gusting 11 4.4
2015-Jan-26 19:12 286 6 gusting 11 4.4
2015-Jan-26 19:07 267 6 gusting 11 4.4
2015-Jan-26 19:02 285 1 gusting 13 4.4
2015-Jan-26 18:57 295 5 gusting 11 4.4
2015-Jan-26 18:52 273 9 gusting 16 4.4
2015-Jan-26 18:47 283 6 gusting 13 4.4
2015-Jan-26 18:42 241 2 gusting 13 4.4
2015-Jan-26 18:37 269 4 gusting 13 4.4
2015-Jan-26 18:32 302 9 gusting 14 4.4
2015-Jan-26 18:27 312 7 gusting 12 4.4
2015-Jan-26 18:22 297 6 gusting 13 4.4
2015-Jan-26 18:17 317 9 gusting 17 4.4
2015-Jan-26 18:12 267 5 gusting 17 4.4
2015-Jan-26 18:07 355 4 gusting 13 4.4
2015-Jan-26 18:02 281 6 gusting 14 4.4